Perpignan, Francia

1:37 AM CET en Enero 23, 2019 (GMT +0100)
Rivesaltes

Tiempo Historia de LFMP - Enero, 2019

Change the Weather History Date:

Viernes, Enero 11, 2019

  Actual Average Record
Temperature  
Temperatura media 42 ° F -  
Temperatura máxima 46 ° F 53 ° F 66 ° F (2008)
Temperatura mínima 37 ° F 38 ° F 32 ° F (2012)
Degree Days  
Grados día de calefacción 24    
Moisture  
Punto de rocío 24 ° F    
Average Humidity 48    
Maximum Humidity 61    
Minimum Humidity 21    
Precipitación  
Precipitación 0.00 pul 0.06 pul - ()
Presión al nivel del mar  
Presión al nivel del mar 30.27 pul    
Viento  
Velocidad del viento 22 mph ()    
Velocidad máxima del viento 30 mph    
Max Gust Speed 45 mph    
Visibilidad 7.1 Millas    
Eventos      
Averages and records for this station are not official NWS values.
T = Trace of Precipitation, MM = Missing Value Source: Averaged Metar Reports

Daily Weather History Graph

Daily Weather History Graph

Search for Another Location

Airport or City:

Astronomía

Jan. 11, 2019 Salida Puesta
Hora real 8:17 AM CET 5:35 PM CET
Crepúsculo civil 7:46 AM CET 6:06 PM CET
Crepúsculo náutico 7:11 AM CET 6:41 PM CET
Crepúsculo astronómico 6:37 AM CET 7:15 PM CET
Luna 11:23 AM CET (1/11) 10:47 PM CET (1/11)
Horas de luz 10h 20m
Horas de luz
9h 17m
Creciente, 24% of the Moon is Illuminated
Ene 11
Creciente
Ene 14
Cuarto creciente
Ene 21
Luna llena
Ene 27
Cuarto menguante
Feb 4
Nueva

Hourly Weather History & Observations

Hora (CET) Temp. Vientos helados Punto de rocío Humedad Presión Visibilidad Wind Dir Velocidad del viento Velocidad de ráfagas Precip Eventos Condiciones
12:00 AM 39.2 ° F 29.6 ° F 24.8 ° F 56% 30.21 pul - NNO 19.6 mph 31.1 mph N/A   Despejado
12:30 AM 39.2 ° F 29.6 ° F 26.6 ° F 61% 30.18 pul 6.2 mi NO 19.6 mph 32.2 mph N/A   Parcialmente nublado
1:00 AM 39 ° F - 26 ° F 47% 30.22 pul 34 mi NNO 19.6 mph - -   Despejado
1:00 AM 39.2 ° F 29.6 ° F 26.6 ° F 61% 30.21 pul 6.2 mi NNO 19.6 mph 31.1 mph N/A   Parcialmente nublado
1:30 AM 39.2 ° F 29.6 ° F 26.6 ° F 61% 30.21 pul 6.2 mi NO 19.6 mph - N/A   Parcialmente nublado
2:00 AM 39 ° F - 26 ° F 49% 30.23 pul 31 mi NO 21.9 mph - -   Despejado
2:00 AM 39.2 ° F 29.0 ° F 26.6 ° F 61% 30.21 pul 6.2 mi NO 21.9 mph - N/A   Parcialmente nublado
2:30 AM 39.2 ° F 29.0 ° F 26.6 ° F 61% 30.21 pul 6.2 mi NO 21.9 mph 34.5 mph N/A   Parcialmente nublado
3:00 AM 39 ° F - 26 ° F 48% 30.25 pul 31 mi NO 24.2 mph - -   Despejado
3:00 AM 39.2 ° F 28.5 ° F 26.6 ° F 61% 30.24 pul 6.2 mi NO 24.2 mph - N/A   Parcialmente nublado
3:30 AM 39.2 ° F 29.0 ° F 24.8 ° F 56% 30.24 pul 6.2 mi NO 21.9 mph - N/A   Parcialmente nublado
4:00 AM 39 ° F - 26 ° F 46% 30.25 pul 31 mi NO 20.7 mph - -   Despejado
4:00 AM 39.2 ° F 29.3 ° F 24.8 ° F 56% 30.24 pul - NO 20.7 mph 33.4 mph N/A   Despejado
4:30 AM 39.2 ° F 29.6 ° F 24.8 ° F 56% 30.21 pul - NO 19.6 mph - N/A   Despejado
5:00 AM 39.2 ° F 28.3 ° F 24.8 ° F 56% 30.21 pul - NO 25.3 mph 36.8 mph N/A   Despejado
5:30 AM 37.4 ° F 26.9 ° F 24.8 ° F 60% 30.21 pul - NO 20.7 mph 33.4 mph N/A   Despejado
6:00 AM 38 ° F - 24 ° F 44% 30.24 pul 34 mi NO 23.0 mph - -   Despejado
6:00 AM 39.2 ° F 28.7 ° F 24.8 ° F 56% 30.21 pul - NO 23.0 mph - N/A   Despejado
6:30 AM 39.2 ° F 28.5 ° F 24.8 ° F 56% 30.24 pul - NO 24.2 mph - N/A   Despejado
7:00 AM 38 ° F - 24 ° F 45% 30.25 pul 34 mi NO 26.5 mph - -   Despejado
7:00 AM 37.4 ° F 25.6 ° F 24.8 ° F 60% 30.24 pul - NO 26.5 mph 38.0 mph N/A   Despejado
7:30 AM 39.2 ° F 28.5 ° F 24.8 ° F 56% 30.24 pul 6.2 mi NO 24.2 mph 35.7 mph N/A   Parcialmente nublado
8:00 AM 37.4 ° F 26.9 ° F 23.0 ° F 56% 30.24 pul - NO 20.7 mph 35.7 mph N/A   Despejado
8:30 AM 39.2 ° F 28.5 ° F 23.0 ° F 52% 30.24 pul - NO 24.2 mph - N/A   Despejado
9:00 AM 39 ° F - 22 ° F 38% 30.27 pul 25 mi NO 25.3 mph - -   Despejado
9:30 AM 39.2 ° F 28.0 ° F 23.0 ° F 52% 30.24 pul 6.2 mi NO 26.5 mph 41.4 mph N/A   Desconocido
10:00 AM 40 ° F - 23 ° F 38% 30.28 pul 16 mi NO 28.8 mph - -   Despejado
10:00 AM 41.0 ° F 30.0 ° F 23.0 ° F 49% 30.27 pul 6.2 mi NO 28.8 mph 43.7 mph N/A   Desconocido
10:30 AM 41.0 ° F 30.2 ° F 23.0 ° F 49% 30.27 pul 6.2 mi NO 27.6 mph 41.4 mph N/A   Desconocido
11:00 AM 42 ° F - 23 ° F 34% 30.29 pul 12 mi NO 28.8 mph - -   Despejado
11:00 AM 42.8 ° F 32.5 ° F 23.0 ° F 46% 30.27 pul 6.2 mi NO 28.8 mph 40.3 mph N/A   Desconocido
11:30 AM 41.0 ° F 30.5 ° F 23.0 ° F 49% 30.27 pul 6.2 mi NO 26.5 mph - N/A   Desconocido
12:00 PM 42.8 ° F 32.3 ° F 23.0 ° F 46% 30.27 pul 6.2 mi NO 29.9 mph 43.7 mph N/A   Desconocido
12:30 PM 44.6 ° F 35.1 ° F 23.0 ° F 43% 30.24 pul 6.2 mi NO 27.6 mph - N/A   Desconocido
1:00 PM 45 ° F - 23 ° F 28% 30.27 pul 9 mi NO 28.8 mph - -   Despejado
1:00 PM 44.6 ° F 34.9 ° F 23.0 ° F 43% 30.24 pul 6.2 mi NO 28.8 mph - N/A   Desconocido
1:30 PM 44.6 ° F 35.3 ° F 23.0 ° F 43% 30.24 pul 6.2 mi NO 26.5 mph - N/A   Desconocido
2:00 PM 46.4 ° F 38.1 ° F 21.2 ° F 37% 30.24 pul 6.2 mi NO 24.2 mph 36.8 mph N/A   Desconocido
2:30 PM 46.4 ° F 37.2 ° F 21.2 ° F 37% 30.24 pul 6.2 mi NO 29.9 mph 44.9 mph N/A   Desconocido
3:00 PM 46 ° F - 21 ° F 24% 30.25 pul 9 mi NO 29.9 mph - -   Despejado
3:00 PM 46.4 ° F 37.2 ° F 21.2 ° F 37% 30.24 pul 6.2 mi NO 29.9 mph 43.7 mph N/A   Desconocido
3:30 PM 46.4 ° F 37.5 ° F 21.2 ° F 37% 30.24 pul 6.2 mi NO 27.6 mph - N/A   Desconocido
4:00 PM 46 ° F - 19 ° F 21% 30.27 pul 9 mi NO 27.6 mph - -   Despejado
4:00 PM 46.4 ° F 37.5 ° F 19.4 ° F 34% 30.24 pul - NO 27.6 mph 42.6 mph N/A   Despejado
4:30 PM 44.6 ° F 35.3 ° F 21.2 ° F 39% 30.27 pul - NO 26.5 mph 41.4 mph N/A   Despejado
5:00 PM 44.6 ° F 35.1 ° F 21.2 ° F 39% 30.27 pul - NO 27.6 mph 43.7 mph N/A   Despejado
5:30 PM 42.8 ° F 32.7 ° F 23.0 ° F 46% 30.30 pul - NO 27.6 mph 39.1 mph N/A   Despejado
6:00 PM 42.8 ° F 34.0 ° F 23.0 ° F 46% 30.30 pul - NO 20.7 mph 33.4 mph N/A   Despejado
6:30 PM 42.8 ° F 33.1 ° F 24.8 ° F 49% 30.30 pul - NO 25.3 mph 38.0 mph N/A   Despejado
7:00 PM 43 ° F - 24 ° F 34% 30.34 pul 37 mi NO 23.0 mph - -   Despejado
7:00 PM 42.8 ° F 33.5 ° F 24.8 ° F 49% 30.33 pul - NO 23.0 mph - N/A   Despejado
7:30 PM 42.8 ° F 33.8 ° F 24.8 ° F 49% 30.33 pul - NO 21.9 mph - N/A   Despejado
8:00 PM 42 ° F - 25 ° F 38% 30.35 pul 37 mi NO 21.9 mph - -   Despejado
8:00 PM 42.8 ° F 33.8 ° F 24.8 ° F 49% 30.33 pul - NO 21.9 mph - N/A   Despejado
8:30 PM 42.8 ° F 34.8 ° F 26.6 ° F 53% 30.33 pul - NNO 17.3 mph - N/A   Despejado
9:00 PM 43 ° F - 26 ° F 38% 30.35 pul 37 mi NO 21.9 mph - -   Despejado
9:00 PM 42.8 ° F 33.8 ° F 26.6 ° F 53% 30.33 pul - NO 21.9 mph 34.5 mph N/A   Despejado
9:30 PM 42.8 ° F 33.1 ° F 26.6 ° F 53% 30.33 pul - NO 25.3 mph 39.1 mph N/A   Despejado
10:00 PM 43 ° F - 27 ° F 40% 30.35 pul 37 mi NO 26.5 mph - -   Despejado
10:00 PM 42.8 ° F 32.9 ° F 26.6 ° F 53% 30.33 pul - NO 26.5 mph 40.3 mph N/A   Despejado
10:30 PM 42.8 ° F 33.3 ° F 26.6 ° F 53% 30.33 pul - NO 24.2 mph 36.8 mph N/A   Despejado
11:00 PM 42.8 ° F 33.1 ° F 26.6 ° F 53% 30.33 pul - NO 25.3 mph 38.0 mph N/A   Despejado
11:30 PM 42.8 ° F 34.5 ° F 26.6 ° F 53% 30.36 pul - NO 18.4 mph - N/A   Despejado